Location: Umburanas
(4.5000°S, 37.9667°W)
Time: 05:15:57
(UTC+00:00)

Cosmos 2237 Rocket - Pass Details

Date: 19 November 2019
Orbit: 834 x 850 km, 71.0° (Epoch: 10 December)

Event Time Altitude Azimuth Distance (km) Brightness Sun altitude
Rises 22:25:06 0° 184° (S) 3,399 5.7 -28.1°
Reaches altitude 10° 22:27:40 10° 177° (S) 2,464 4.8 -28.7°
Enters shadow 22:30:31 28° 158° (SSE) 1,546 3.5 -29.3°
